Wind_Gust
25 27 26 25 25 24 26 23 22 22 22 23 25 25 24 26 22 22 22 20 19 19 18 18 17 13 16 16 15 13 13 12 11 10 15 12 13 12 10 10 13 11 13 10 8 9 9 8 7 6 8 8 7 7 11 10 9 7 7 6 8 11 13 14 15 15 16 15 13 13 12 12 12 11 11 10 9 10 10 10 10 9 9 8 7
26 27 27 25 26 23 25 26 22 26 24 24 24 26 23 22 22 22 21 21 19 19 20 19 16 17 15 15 13 15 14 13 12 14 13 13 14 13 10 12 12 13 11 10 9 9 8 7 7 7 6 11 10 9 10 7 7 7 7 9 7 8 13 15 15 16 14 15 16 13 13 11 10 10 10 10 9 9 9 9 9 10 9 7 7
28 29 27 28 26 26 25 24 23 25 25 24 22 24 24 24 23 21 22 21 21 20 19 21 16 18 18 17 15 14 10 9 14 12 12 14 13 12 11 11 12 12 10 10 8 8 9 8 6 5 6 8 9 8 8 7 6 6 6 7 10 7 11 13 14 12 10 13 12 17 17 16 12 12 11 10 9 8 8 8 8 8 8 8 7
30 30 30 30 27 27 25 26 27 25 23 21 24 27 27 23 23 22 24 22 22 22 20 18 17 18 19 17 13 10 13 14 12 12 12 13 12 13 11 10 10 9 10 10 11 8 7 5 6 6 7 9 8 7 8 8 7 6 6 6 7 11 12 10 7 8 7 14 16 16 18 17 17 14 12 9 9 9 8 9 7 7 6 6 5
35 34 31 30 30 30 27 26 28 26 27 23 23 24 24 24 25 25 24 24 23 19 20 19 20 18 18 16 15 16 13 12 12 11 12 13 13 11 11 10 11 11 9 8 9 8 6 5 7 8 6 7 6 8 8 8 7 8 7 7 7 6 9 7 8 7 9 9 14 13 12 17 10 18 14 12 10 10 9 11 8 5 6 6 6
35 37 36 32 31 28 25 25 26 26 29 24 21 24 23 27 22 21 21 21 20 21 21 22 21 23 22 23 21 19 19 19 17 17 15 14 15 13 12 11 10 9 9 10 12 9 7 7 8 9 8 8 8 9 8 8 8 9 8 8 9 8 9 9 10 8 7 11 11 9 10 13 9 17 15 11 9 9 10 9 8 6 6 7 6
32 33 34 31 31 30 28 25 27 30 27 24 22 22 25 25 23 22 23 22 24 20 22 22 21 21 21 21 18 18 20 16 12 13 14 14 13 12 13 11 11 11 11 11 11 11 10 10 9 9 9 8 8 8 8 8 10 10 9 9 9 8 7 11 10 12 10 11 10 10 10 8 13 11 8 16 14 12 11 11 10 10 9 10 9
37 36 35 31 32 32 32 29 32 31 26 27 26 27 27 25 23 23 21 21 22 23 23 22 22 20 20 19 19 17 17 18 15 14 13 14 14 13 12 12 12 12 11 11 10 10 10 9 8 8 7 8 9 10 10 9 10 11 10 10 10 9 7 8 9 9 10 10 8 8 9 10 12 10 11 10 12 14 14 12 8 8 8 6 8
35 33 35 34 33 32 30 30 30 30 30 29 28 28 27 25 22 21 22 22 23 24 23 23 21 23 22 21 19 17 19 20 14 13 16 17 16 14 12 13 12 11 12 11 9 10 10 10 9 9 9 10 11 12 12 13 12 11 11 11 11 11 10 9 8 10 8 9 8 9 10 11 10 11 10 8 13 9 13 15 13 13 8 9 5
37 36 34 33 31 32 31 29 30 29 29 27 26 26 27 25 24 26 25 24 25 26 25 24 23 22 22 19 18 20 20 20 19 19 16 12 13 12 13 13 14 11 10 10 9 10 9 9 9 10 10 11 12 13 13 14 13 13 13 12 11 12 11 11 11 10 10 10 8 6 8 8 9 10 11 12 8 11 9 8 10 14 14 14 8
38 37 35 33 32 32 31 31 30 28 27 27 28 26 26 25 26 26 26 26 27 28 25 25 24 22 22 21 21 22 21 21 23 21 20 18 18 15 14 13 12 13 11 10 10 11 10 11 11 11 12 12 12 12 12 14 14 14 14 13 13 13 13 12 13 12 12 12 11 12 12 12 11 11 11 10 9 10 9 5 5 9 10 16 12
38 38 37 34 33 34 33 30 28 29 27 28 28 27 26 28 27 27 26 25 27 29 26 26 25 23 21 20 22 22 23 24 25 24 23 20 18 16 14 12 12 12 12 11 10 11 11 12 12 12 12 12 12 12 13 13 13 13 12 12 13 12 12 13 12 13 12 13 12 12 12 12 12 11 11 11 11 10 10 10 8 11 10 15 17
40 36 36 36 36 36 35 32 31 30 30 28 31 29 28 26 28 29 28 27 28 27 27 25 22 23 23 22 21 23 22 22 23 23 21 20 20 15 15 15 14 15 14 12 11 10 12 12 12 12 13 12 13 13 12 13 13 12 13 12 12 11 12 11 12 12 11 12 12 11 12 12 12 11 11 11 10 9 11 11 13 13 9 9 15
38 37 36 39 37 35 35 35 33 32 30 33 31 29 27 28 28 29 29 28 26 28 27 25 24 22 22 21 22 23 22 22 22 22 21 20 20 18 18 17 16 14 14 13 14 13 13 12 12 13 13 13 13 13 13 13 13 15 13 13 13 13 13 13 13 11 11 11 11 13 12 12 12 11 11 11 12 12 12 13 13 12 7 12 11
40 37 36 35 39 34 35 35 33 32 31 32 30 31 26 29 31 30 30 29 28 27 27 26 24 23 23 23 23 23 24 22 20 21 22 20 19 19 17 17 18 17 16 14 15 14 14 14 14 14 14 14 14 13 14 13 12 14 14 12 13 12 12 13 12 12 13 13 12 12 12 12 12 12 12 12 12 13 12 13 14 14 10 10 12
39 38 37 36 36 34 35 31 31 32 33 32 30 29 27 28 29 30 30 30 30 29 27 26 23 23 22 21 21 21 21 22 21 21 21 18 19 19 18 19 21 18 16 15 14 15 15 16 15 15 15 14 14 14 14 14 13 13 14 13 13 13 14 13 13 14 13 12 12 11 12 13 12 12 12 12 12 11 11 11 13 13 13 12 11
35 39 39 40 35 34 35 31 31 33 34 33 32 28 28 29 30 30 31 29 29 30 28 26 24 23 22 22 22 21 21 21 22 21 20 17 17 19 18 19 20 17 17 16 16 16 16 15 16 15 15 14 14 14 14 14 14 13 14 13 13 12 12 12 12 13 12 12 12 11 12 13 12 11 11 11 10 10 11 11 12 14 14 12 13
35 39 39 40 38 37 34 33 32 33 33 32 29 28 28 29 31 32 31 31 29 28 27 25 24 24 23 25 24 24 23 22 21 21 20 21 20 20 18 17 18 18 19 17 17 17 16 16 16 16 15 14 14 15 15 15 13 14 13 13 13 12 12 12 11 12 11 11 11 12 12 12 11 10 11 9 9 9 10 10 11 11 13 13 13
39 38 38 39 37 39 36 32 33 32 30 33 32 28 28 28 29 30 30 30 29 27 25 25 25 25 27 27 24 24 23 22 20 22 22 22 21 19 19 19 18 18 19 19 18 18 17 17 16 16 16 16 15 15 15 14 13 14 13 13 13 12 13 13 13 12 12 13 13 12 11 11 9 8 8 9 9 9 9 10 10 10 11 11 12
38 38 38 38 37 35 35 33 34 33 33 34 32 31 30 30 28 28 26 27 27 26 26 25 26 24 25 26 23 24 23 22 24 24 24 22 20 20 21 19 18 19 18 19 18 18 18 18 17 17 17 16 16 16 15 14 14 13 13 13 13 13 14 14 13 12 13 12 12 11 9 9 8 8 8 7 7 8 8 9 9 8 9 10 10
37 36 39 38 37 35 33 32 33 32 31 30 32 32 32 30 30 30 29 29 28 26 25 26 25 26 26 25 25 24 22 23 23 23 23 23 19 19 20 19 19 18 19 19 18 19 19 18 18 18 18 17 17 16 15 14 14 13 13 13 14 14 14 14 13 13 13 12 13 13 12 10 8 7 7 8 8 8 7 8 9 9 9 9 11
35 35 36 37 35 35 33 34 32 35 34 32 33 30 31 31 33 30 31 32 30 29 27 27 24 28 26 24 24 23 25 24 24 24 22 22 20 20 19 19 18 19 19 19 20 19 19 19 19 19 18 18 17 17 15 14 15 14 14 14 13 15 14 15 13 14 13 12 11 12 13 11 10 10 9 9 9 8 10 11 9 10 10 11 11
38 37 37 35 34 35 36 34 35 36 35 34 33 31 31 29 32 30 32 31 31 31 28 27 25 26 27 24 25 26 25 23 24 23 22 22 19 19 20 19 19 19 19 19 20 19 20 20 19 19 19 18 18 17 15 15 15 16 16 14 13 14 14 14 14 15 15 13 12 11 11 9 8 8 8 8 7 8 9 10 9 9 9 10 11
34 36 35 35 34 33 35 34 36 35 34 35 34 31 30 32 33 32 31 31 31 30 30 28 27 27 27 25 28 26 26 25 23 21 20 19 20 20 20 20 20 20 21 19 19 20 19 19 19 19 19 19 19 17 16 16 17 16 15 16 15 14 14 14 14 15 15 13 13 12 10 10 9 8 8 8 8 8 7 9 9 8 8 10 10
32 35 34 34 33 35 37 37 37 36 35 35 34 33 33 32 32 32 31 30 30 29 30 30 27 28 26 28 26 28 26 25 23 21 21 20 20 20 20 21 20 20 20 20 20 19 19 20 19 20 20 19 18 18 18 18 16 15 16 15 15 15 14 14 13 13 10 12 12 11 11 10 8 8 7 8 9 8 9 9 10 10 10 11 12
33 35 36 36 37 37 35 34 36 36 37 36 36 33 33 31 32 30 31 30 31 29 29 28 29 28 28 27 26 27 27 25 23 21 21 20 20 20 21 19 20 21 20 20 20 20 20 20 20 20 19 19 19 18 18 18 18 17 16 15 14 14 14 14 14 14 13 12 12 12 11 10 9 8 8 8 8 8 8 9 11 12 12 12 12
35 34 36 35 33 35 35 35 35 33 33 34 35 35 32 30 30 29 31 31 29 30 29 28 28 27 29 28 28 28 28 25 23 22 20 20 19 19 21 20 20 20 20 20 20 20 19 19 20 20 20 20 20 19 19 18 18 18 17 16 15 15 15 14 14 13 13 12 12 12 11 10 9 9 8 8 7 6 7 9 10 10 12 12 13
34 34 35 36 36 36 34 34 33 35 33 33 31 34 32 31 32 30 30 27 26 28 29 28 28 25 29 30 27 28 27 26 22 22 20 20 19 19 19 19 19 20 20 20 21 20 19 19 20 19 19 19 19 19 19 19 19 18 17 16 16 15 15 14 13 13 13 13 13 13 12 11 10 10 10 9 9 8 9 8 10 11 11 12 12
36 33 34 34 34 35 34 34 35 33 33 31 32 32 29 26 26 29 30 28 28 30 30 28 27 26 27 28 27 28 27 24 23 22 20 19 19 19 19 19 19 19 19 21 20 21 20 20 20 19 20 19 19 19 19 19 19 19 18 17 17 16 16 15 15 15 14 13 14 13 13 12 13 11 11 9 8 8 11 9 10 11 12 12 12
33 34 33 33 34 36 35 34 34 34 35 32 32 33 32 29 25 25 29 28 29 28 29 28 30 30 27 28 31 26 26 24 26 23 21 20 20 19 19 20 21 21 20 21 21 20 21 20 21 21 19 18 18 17 13 14 12 18 18 18 16 16 16 16 16 15 14 14 14 13 15 13 10 8 6 4 3 5 7 9 10 11 12 12 13
32 32 33 32 34 36 36 35 35 36 35 35 33 31 28 28 27 27 30 29 29 29 28 29 29 29 29 29 30 28 27 26 23 21 19 20 18 18 20 22 22 22 22 21 21 22 21 20 21 21 20 19 19 16 16 11 13 14 17 16 16 16 16 16 15 15 15 15 15 16 14 13 12 10 12 9 6 6 5 4 5 7 7 9 12
31 33 33 32 34 37 38 36 36 36 34 33 31 30 31 30 26 27 28 30 28 28 28 28 30 28 29 30 29 28 29 26 22 22 20 18 21 23 23 22 21 21 21 20 20 21 20 19 20 20 19 18 15 15 17 14 11 10 8 14 16 16 15 16 15 16 15 15 15 15 14 14 15 15 15 16 13 11 11 10 10 9 9 9 7
30 32 33 33 35 37 36 33 34 37 35 32 32 32 32 29 27 27 27 28 28 26 27 28 27 28 29 29 27 30 28 24 22 22 19 22 23 23 22 21 21 19 18 19 20 19 19 18 18 19 19 18 14 15 17 16 11 10 7 8 16 15 16 15 15 15 15 15 14 14 12 11 10 14 14 15 16 16 12 14 14 12 12 11 11
30 32 32 32 32 35 35 33 32 33 32 31 30 31 30 29 26 27 27 27 23 24 24 26 27 28 29 28 28 27 27 22 21 24 25 25 24 23 20 19 19 18 18 18 18 18 18 18 18 18 18 17 16 14 17 16 13 10 6 5 11 16 14 15 15 14 14 14 14 14 13 13 13 12 12 9 10 12 14 15 16 17 16 15 13
33 31 30 30 31 32 31 31 32 32 31 30 30 26 28 27 27 26 26 27 26 24 25 23 25 27 29 30 28 28 24 23 25 26 25 25 24 22 21 20 20 20 20 19 19 18 18 16 17 16 17 17 18 17 16 16 14 11 7 4 13 15 14 14 14 12 12 12 12 14 13 13 13 10 8 10 10 9 9 8 10 13 16 15 16
32 30 29 30 30 30 31 30 27 29 30 29 29 26 27 26 23 27 26 27 28 26 27 25 27 26 29 30 30 27 23 24 27 26 26 26 24 24 23 21 20 20 19 17 17 17 17 16 16 16 15 16 17 19 16 16 14 10 8 10 15 14 14 14 14 14 13 12 12 11 11 12 11 11 7 6 7 13 13 13 12 7 8 8 10
25 26 28 27 26 26 26 24 25 29 31 28 25 26 26 26 26 27 28 29 31 29 28 28 28 29 29 30 30 31 30 28 26 26 26 25 25 25 23 23 22 21 20 19 17 15 18 19 16 14 14 14 17 16 18 15 14 12 8 16 15 16 15 14 15 14 15 13 13 14 13 12 12 13 8 6 5 5 14 15 13 8 8 9 7
29 28 27 26 27 29 29 25 25 26 27 26 25 26 27 27 27 27 28 28 30 30 31 31 30 28 29 29 28 30 30 30 27 27 26 24 24 23 23 23 25 22 21 18 16 15 16 16 13 15 15 18 17 14 17 17 15 12 10 18 17 15 15 14 15 15 14 15 11 10 10 10 14 14 9 7 6 9 14 14 12 9 9 8 7
30 30 30 30 29 30 29 29 28 26 26 24 27 28 29 27 25 28 30 29 31 31 31 31 30 30 29 27 27 27 27 27 28 26 24 24 24 22 17 16 15 18 20 18 19 21 18 16 17 19 24 23 21 17 16 18 17 16 15 18 18 16 16 15 16 16 14 14 14 11 10 12 10 14 10 7 6 9 13 13 11 10 10 9 9
31 28 28 28 28 31 29 30 31 27 25 29 28 31 27 28 27 29 30 29 29 29 30 29 28 28 28 26 25 25 24 24 23 22 20 20 19 19 18 17 18 20 21 20 19 20 18 19 15 14 15 18 21 19 19 19 18 17 15 19 19 15 15 16 15 16 17 13 14 14 12 13 12 11 9 7 5 5 11 12 11 11 10 9 13
31 28 22 29 31 30 30 30 31 30 28 28 29 29 27 26 28 29 30 30 30 31 31 30 29 27 27 25 25 25 25 21 18 20 19 19 19 19 20 20 19 18 18 20 17 15 17 16 15 18 18 19 17 20 19 19 21 19 17 15 18 17 14 15 16 15 16 16 16 16 16 13 15 12 10 8 6 7 6 11 12 10 11 11 11
27 25 25 30 30 26 27 29 28 31 30 28 28 28 26 26 27 28 28 29 30 30 29 29 30 28 25 23 22 21 21 19 20 19 19 18 17 19 19 20 18 19 19 17 16 16 17 18 18 20 17 16 18 19 17 19 21 21 22 23 19 17 15 17 14 16 16 16 16 17 18 16 17 15 13 11 8 8 7 12 12 9 11 10 14
31 29 26 27 27 28 29 27 29 30 29 28 27 26 26 26 27 26 27 27 27 26 26 27 27 27 22 20 18 19 18 18 19 18 19 18 18 19 18 19 20 20 19 20 20 20 19 19 18 19 18 18 17 19 21 19 20 20 21 20 19 15 12 18 18 16 15 15 15 15 18 21 18 18 14 12 10 8 6 12 13 13 11 12 10
29 27 27 26 27 27 28 27 27 27 28 27 27 26 23 23 24 25 24 25 27 26 25 23 21 21 20 21 22 19 16 18 19 18 17 19 18 19 19 19 21 22 21 21 23 21 21 20 20 19 17 18 19 17 17 21 19 20 18 17 17 15 11 12 16 18 18 16 18 16 18 22 19 16 14 13 12 9 13 10 10 11 12 10 17
26 28 27 26 28 28 28 27 27 27 25 25 24 25 23 24 23 21 22 26 25 25 24 23 22 21 20 22 22 20 18 16 17 18 20 20 20 19 19 21 22 23 21 22 20 20 20 19 19 19 19 20 20 19 18 19 21 18 17 17 16 14 12 10 14 12 20 20 14 17 20 18 17 14 13 9 7 11 16 17 18 19 15 17 19
26 27 28 26 29 28 27 25 25 26 24 21 23 24 24 24 24 23 25 26 26 27 23 23 22 21 22 24 24 21 19 18 17 17 18 19 20 21 21 21 21 21 20 20 19 20 21 21 20 21 22 21 20 17 19 18 16 16 15 17 16 13 9 9 8 10 7 7 8 9 12 13 11 11 11 12 14 14 13 18 19 17 15 19 20
25 26 24 27 28 29 27 24 24 24 23 23 22 22 23 23 24 24 25 24 22 22 21 21 22 22 21 23 24 23 22 21 18 18 18 19 22 23 22 21 21 22 21 20 21 20 20 21 21 21 21 21 21 20 19 19 19 19 18 15 14 12 7 7 11 12 9 13 14 11 9 9 6 11 10 9 10 9 12 12 15 17 19 20 21
25 25 22 24 27 25 25 25 26 24 22 22 23 23 24 24 24 25 24 23 21 21 22 21 23 22 21 22 22 15 21 22 22 21 20 20 20 21 21 22 23 23 23 22 21 22 22 22 21 20 21 21 22 21 21 21 20 20 19 18 16 15 15 15 16 15 14 13 14 7 7 10 10 11 11 13 16 18 19 17 19 20 22 23 18
25 22 19 25 23 25 26 24 23 23 22 22 21 23 26 26 25 24 24 23 22 20 19 20 21 21 21 20 20 22 21 21 21 20 18 19 22 21 21 19 18 21 20 23 24 22 20 19 20 22 21 21 20 22 20 15 21 17 21 19 19 19 19 18 16 11 13 14 13 13 12 13 13 13 13 19 20 20 19 19 19 19 18 17 16
21 21 19 22 19 24 25 23 22 22 22 22 21 23 24 28 25 24 23 23 22 22 20 20 20 20 21 21 20 21 20 21 21 21 22 19 10 10 13 18 21 13 14 15 13 21 20 19 20 20 20 20 20 15 20 26 23 23 19 22 21 19 18 16 12 16 12 15 16 14 14 15 17 17 19 18 18 18 18 19 19 15 20 17 16
20 19 17 17 20 22 23 23 22 21 21 21 20 23 24 25 23 24 24 24 24 22 20 19 19 19 20 21 21 20 20 22 22 22 22 20 20 13 11 12 11 14 13 16 16 15 14 12 15 16 12 10 15 22 26 23 21 21 21 20 18 18 17 17 16 16 12 11 11 13 14 15 16 17 15 16 14 14 12 12 13 13 13 14 12
Wind_Speed
10 12 11 14 13 14 11 10 10 12 13 13 13 13 12 12 11 11 9 8 7 7 6 6 7 5 5 6 5 5 3 5 5 6 2 2 4 5 4 3 3 3 1 4 2 2 2 1 1 3 3 4 3 4 6 4 3 4 1 1 1 6 6 5 6 6 6 4 3 3 3 3 3 3 3 3 4 4 4 5 5 5 5 2 1
13 11 11 12 12 13 12 9 11 14 11 12 13 14 13 13 11 11 9 8 7 7 7 7 6 5 6 6 4 5 4 4 5 6 6 4 4 6 6 5 5 4 4 3 2 2 2 2 1 2 2 5 4 4 3 3 3 3 0 0 1 4 5 6 6 6 3 4 5 3 2 2 1 2 2 2 2 3 3 2 2 2 4 2 2
14 15 14 13 13 13 13 11 11 12 12 12 12 14 14 12 10 10 9 9 8 8 7 6 5 6 6 5 5 5 2 3 6 4 5 6 4 4 4 5 3 5 4 4 2 3 2 2 3 1 2 2 4 3 2 2 2 2 2 1 1 1 5 5 7 5 1 5 4 4 2 2 2 2 2 2 2 3 1 1 1 1 1 3 3
17 17 16 15 15 15 14 12 13 12 13 12 14 15 11 10 11 10 11 10 9 8 6 7 7 7 6 7 5 3 4 5 7 5 6 6 5 5 3 5 6 4 4 4 3 2 1 2 3 3 4 5 3 2 2 3 1 1 1 2 3 1 3 4 3 2 0 1 4 3 4 3 2 2 2 1 3 3 2 2 1 1 1 1 3
17 18 17 17 16 16 15 14 13 12 12 14 13 12 9 13 12 12 12 11 10 9 8 8 7 6 6 5 4 6 5 5 5 4 5 5 6 5 5 5 5 3 3 3 4 3 2 2 4 4 4 1 1 3 2 3 2 2 2 3 4 1 4 2 2 2 3 2 1 1 2 3 1 4 3 1 3 3 4 4 2 2 1 2 3
21 20 21 19 18 15 16 15 14 12 14 12 9 12 12 11 12 12 10 10 10 10 10 9 9 9 8 8 8 7 7 6 6 8 6 6 6 5 6 5 4 2 3 5 4 4 2 2 5 3 2 2 4 4 3 2 3 3 2 1 2 5 4 3 2 2 2 1 2 1 1 1 1 4 4 2 3 1 2 1 4 1 0 3 3
21 21 20 19 17 18 16 14 15 15 15 10 8 8 12 11 12 12 11 10 10 11 10 9 9 7 9 8 8 8 8 6 5 5 6 5 6 6 6 5 5 4 4 4 5 5 5 6 5 4 3 2 2 3 3 4 4 3 2 3 2 2 3 3 3 2 2 2 1 1 2 1 2 4 1 4 3 1 2 0 0 1 1 2 3
21 22 21 18 18 18 19 14 16 14 14 11 10 8 12 11 12 12 9 10 10 11 11 9 9 9 9 7 6 6 6 6 6 5 4 5 6 6 5 5 5 4 4 6 5 5 4 4 3 2 2 2 3 4 3 3 4 3 3 4 5 5 2 3 3 2 3 1 2 0 1 1 2 1 1 0 1 4 3 4 2 2 1 0 1
21 20 22 21 19 18 17 15 15 15 15 13 11 12 10 12 11 11 11 10 10 12 12 11 9 9 9 7 7 5 7 6 4 4 6 6 7 5 5 5 4 4 5 5 5 5 4 3 3 2 2 3 5 4 4 4 3 3 4 4 4 5 5 3 3 3 2 1 0 1 2 2 2 3 4 3 2 0 4 5 3 2 2 2 2
20 20 20 20 18 17 16 15 15 15 13 11 12 11 11 11 13 12 12 11 10 12 11 11 10 9 9 9 9 8 7 6 5 5 5 5 6 6 6 5 5 4 4 5 5 5 4 3 2 2 2 4 5 5 5 4 4 4 4 4 4 5 5 5 5 4 4 5 4 3 1 0 2 3 4 6 2 2 0 2 6 6 4 4 3
19 20 19 19 18 17 17 17 17 14 11 13 13 13 11 11 14 14 13 11 12 12 12 12 11 10 9 10 10 11 10 9 7 5 6 6 6 6 6 6 6 5 4 5 4 5 4 3 3 4 4 3 4 4 5 5 4 4 4 4 5 5 5 5 5 5 6 5 5 6 5 5 4 4 4 4 3 3 5 1 3 1 3 5 5
23 21 23 20 20 19 17 16 16 16 13 14 12 12 12 12 14 16 14 12 13 13 12 12 11 11 10 10 11 12 11 10 10 11 11 10 7 6 6 6 6 6 5 4 4 4 4 4 4 4 3 3 4 4 5 5 4 4 4 5 5 4 4 4 4 4 4 5 4 5 5 5 6 5 4 3 5 4 3 5 4 3 1 5 3
20 20 21 20 20 20 19 17 17 16 15 16 14 12 12 13 16 17 16 14 15 14 14 13 11 11 10 10 10 10 11 11 11 10 9 8 7 6 6 6 6 6 6 4 4 5 4 4 4 4 4 4 3 3 4 4 4 4 4 5 5 5 5 5 5 4 4 4 4 4 6 6 5 3 3 4 5 5 5 4 5 7 3 1 6
19 20 20 20 18 19 19 18 17 16 16 14 13 13 12 13 16 16 16 15 13 14 14 13 12 11 10 9 9 10 9 9 8 8 8 6 6 6 6 6 6 5 7 5 5 5 4 3 4 4 4 4 4 4 4 4 5 5 5 5 5 4 4 4 4 4 5 5 4 6 5 5 3 5 4 5 5 4 4 4 5 5 4 3 2
20 22 21 21 22 19 17 17 15 14 16 15 13 13 12 13 15 16 16 15 15 14 13 13 11 11 9 9 9 9 8 7 7 7 7 7 7 7 6 6 6 6 6 5 5 5 4 5 5 4 4 4 3 3 4 4 5 6 5 5 5 4 4 4 4 4 5 5 4 4 5 4 3 5 5 5 3 3 3 3 4 5 4 4 4
18 19 20 20 22 18 16 15 16 15 16 14 14 13 13 14 15 15 16 16 15 15 13 12 11 10 9 11 10 10 7 7 7 8 7 8 8 8 7 6 5 7 7 6 5 5 5 6 5 5 4 4 4 4 4 5 6 6 5 4 5 4 5 5 4 4 4 4 4 4 4 3 3 4 3 3 4 3 3 3 4 4 4 3 4
20 17 19 22 20 18 17 17 16 15 15 15 16 15 15 15 15 16 15 14 15 14 13 12 11 11 11 12 11 10 10 9 9 10 9 8 7 7 6 6 7 7 7 5 6 6 5 5 6 5 4 4 4 4 6 5 5 5 5 4 4 3 4 4 3 4 3 3 3 4 4 4 3 3 3 3 3 3 3 3 3 4 4 2 2
21 25 25 25 22 22 20 18 18 17 17 17 16 14 13 14 16 16 15 16 15 14 13 11 11 12 11 12 11 10 9 9 9 10 8 7 7 7 6 7 7 7 7 6 6 6 5 6 6 5 5 4 4 5 5 5 5 4 4 4 3 4 4 3 3 3 3 2 3 3 4 4 2 2 2 2 2 2 2 3 3 3 4 4 2
21 22 21 21 21 20 19 19 20 18 17 16 14 13 13 13 14 16 16 15 14 12 12 10 11 9 9 11 11 10 9 8 8 8 7 8 8 6 6 8 8 8 7 7 6 6 6 6 5 5 5 5 5 5 5 5 5 4 4 4 3 3 3 4 4 3 2 3 3 3 2 2 1 1 2 1 1 2 3 2 1 1 3 2 2
20 20 20 20 21 22 22 20 20 19 18 16 15 13 15 14 15 15 14 14 14 14 12 12 11 10 10 10 10 10 9 9 7 9 8 8 8 8 6 10 9 8 6 7 7 7 7 6 6 6 5 5 5 5 4 5 5 4 4 4 3 4 4 4 3 3 2 2 2 2 2 2 3 2 1 0 1 0 0 2 2 1 2 1 2
19 19 20 20 20 20 19 18 17 17 15 14 14 15 15 14 15 15 17 16 15 14 12 11 11 11 12 12 11 9 10 9 9 9 8 8 7 7 6 7 8 7 7 7 7 8 8 7 7 7 6 6 6 5 5 4 4 4 3 4 4 4 4 3 3 3 3 3 2 3 2 1 1 1 1 1 1 1 2 2 0 2 2 2 2
20 20 20 19 19 18 17 17 16 16 16 16 15 14 15 16 16 15 15 16 15 13 12 12 11 12 13 12 12 9 9 10 10 9 8 8 8 8 8 7 8 8 8 8 8 7 7 7 7 7 7 7 6 6 5 4 5 4 4 4 4 4 4 4 3 3 3 2 2 3 2 3 2 2 3 2 2 3 2 3 1 1 2 1 1
22 20 20 19 19 19 18 18 19 19 18 18 16 15 16 16 16 14 16 16 16 14 12 11 11 12 13 12 12 10 10 11 11 9 10 10 8 8 9 9 8 8 7 7 8 7 8 8 7 7 7 7 7 6 4 4 4 5 5 4 4 4 4 4 3 3 3 3 3 2 2 1 0 1 1 1 2 3 2 2 2 0 1 0 1
22 20 18 19 19 17 17 17 17 16 16 17 16 14 14 14 16 15 16 17 16 14 12 12 12 13 14 13 13 10 12 11 11 9 9 10 9 9 8 9 9 7 8 6 7 8 8 7 7 7 7 7 7 6 5 5 6 5 5 4 4 4 4 4 4 3 4 3 3 2 2 1 0 1 0 2 1 3 1 2 3 2 1 3 2
21 22 18 17 18 19 18 19 18 17 17 16 16 16 15 14 14 15 15 15 15 13 14 13 13 14 13 13 12 11 11 11 11 9 10 10 10 9 8 9 8 8 7 7 7 7 7 8 7 8 8 7 7 7 6 6 5 4 4 4 4 4 4 4 4 4 4 3 3 3 2 2 1 1 1 2 2 1 3 2 3 4 3 3 3
18 19 19 19 19 18 16 17 17 18 18 18 16 15 15 15 15 13 14 14 13 12 14 13 13 14 13 14 12 12 12 12 11 10 11 10 10 9 9 8 8 8 8 7 8 7 8 9 8 8 8 8 8 7 7 7 6 5 4 4 4 4 4 4 4 3 3 2 2 2 2 1 1 1 2 1 1 2 2 2 3 3 3 3 3
20 18 17 17 16 19 19 19 16 17 16 16 16 16 14 15 14 13 13 12 12 12 13 12 12 13 13 13 13 12 12 12 10 10 10 10 10 9 10 10 8 8 8 8 8 8 7 8 9 9 9 9 9 8 7 7 7 6 5 5 4 4 4 4 3 3 3 3 2 3 3 2 2 2 1 2 2 1 1 1 2 2 3 3 4
17 18 19 19 18 17 18 17 17 16 16 15 15 16 16 14 15 14 14 12 10 13 13 13 12 12 12 13 12 11 12 11 10 11 11 10 9 9 9 9 9 9 9 9 10 9 8 8 8 8 8 8 8 8 8 7 7 6 5 5 4 4 5 4 4 4 3 3 3 3 3 4 5 4 3 3 3 3 5 2 3 3 3 3 3
18 17 17 19 19 18 18 18 17 17 18 18 17 16 14 12 12 13 12 13 13 14 14 13 13 13 12 12 11 10 10 10 11 11 11 10 10 9 9 9 8 8 7 8 7 8 8 8 7 7 8 7 7 7 6 7 7 7 6 6 5 5 5 4 4 4 3 3 3 4 5 4 4 6 6 4 3 3 2 3 3 3 3 3 4
20 20 19 18 19 19 18 18 17 18 19 18 17 18 16 14 14 11 12 13 13 14 14 13 13 13 12 12 12 10 11 12 11 11 11 10 10 9 9 9 8 8 7 7 7 7 7 6 7 7 6 6 5 5 8 12 9 7 7 6 5 5 5 4 4 4 4 4 5 5 4 8 6 4 2 1 1 2 3 2 1 3 3 3 3
17 20 18 17 17 16 17 17 18 20 20 17 15 15 15 15 13 13 14 13 13 13 13 13 12 12 12 13 12 12 11 12 11 10 10 11 11 9 9 9 8 8 8 8 8 8 8 7 8 7 7 6 6 5 14 10 12 12 7 5 5 5 5 4 4 4 4 4 5 5 3 4 4 3 1 3 2 2 2 2 3 4 4 2 2
14 17 16 17 19 18 18 18 18 19 18 16 15 15 14 14 14 13 13 14 13 13 13 13 12 13 12 12 11 11 12 11 11 12 12 11 10 9 9 9 8 8 7 6 7 8 8 6 7 8 7 6 4 10 14 12 10 9 4 6 4 5 4 4 4 4 4 5 5 5 4 3 3 3 3 2 4 5 6 7 7 6 6 6 5
14 14 15 16 18 18 18 17 17 16 18 18 14 16 15 13 15 13 13 13 13 13 13 13 13 14 12 11 12 12 12 12 12 13 11 11 11 10 9 9 9 7 7 6 7 7 7 6 7 8 8 6 6 12 14 13 10 9 7 4 5 4 5 4 4 4 4 5 6 6 5 6 4 10 7 4 4 4 7 9 8 7 8 9 9
17 16 14 14 14 13 14 16 15 15 16 15 13 13 11 11 12 13 14 14 13 12 13 13 13 13 12 11 13 12 12 12 12 12 12 12 11 10 8 7 7 7 8 6 7 6 6 5 6 6 7 7 9 11 15 14 11 9 5 3 2 5 4 5 5 5 5 5 6 5 4 3 3 3 4 5 6 7 7 6 6 5 6 9 11
15 17 15 14 13 15 16 15 14 16 14 14 13 12 11 12 12 13 12 13 12 13 13 12 12 13 13 13 13 12 13 11 12 13 12 11 11 9 9 8 8 8 8 8 8 6 6 4 5 4 6 7 8 12 14 14 12 10 6 3 2 2 4 4 5 4 4 5 5 5 5 5 5 5 1 2 3 4 3 3 5 8 8 8 7
14 16 15 14 13 18 18 16 14 13 14 14 13 12 13 13 12 12 12 12 12 13 12 12 12 14 14 13 13 13 12 13 13 12 12 11 10 9 9 8 8 7 6 5 5 5 6 7 6 4 6 7 7 13 12 13 11 10 7 1 0 2 3 3 4 3 2 2 3 4 5 5 5 4 3 6 4 3 3 5 7 4 3 3 6
14 15 14 13 12 17 16 15 13 14 15 14 13 13 12 13 13 12 12 10 11 13 13 13 13 14 14 14 14 13 13 14 13 13 12 11 11 10 8 7 8 7 7 7 7 7 6 8 8 5 7 8 7 5 10 11 11 11 7 1 0 3 1 2 3 1 3 3 3 2 2 3 4 4 5 6 5 3 2 4 7 4 3 3 2
13 13 11 10 12 15 15 14 16 16 15 13 13 13 11 12 13 13 13 11 12 12 12 13 14 14 14 15 13 13 14 13 12 13 12 10 9 8 8 8 8 8 8 7 5 6 7 8 7 3 8 10 9 7 6 9 8 9 5 2 1 3 1 3 6 5 4 3 4 6 5 2 3 6 7 6 5 1 2 4 7 3 3 5 1
10 10 13 13 14 14 15 16 16 16 15 14 15 15 13 12 13 13 12 12 12 12 12 13 14 13 12 11 11 14 14 14 14 13 11 11 11 10 8 8 7 7 6 6 6 8 8 8 6 8 15 14 11 11 12 13 12 10 5 2 3 4 4 5 5 6 5 4 5 6 6 4 3 8 9 6 6 2 2 3 6 5 5 3 5
10 7 9 15 14 15 15 14 14 13 14 16 15 13 14 13 12 12 12 12 12 13 11 11 11 11 11 11 11 12 12 13 13 12 11 11 9 8 8 8 7 7 7 6 7 7 7 5 6 7 8 9 11 10 13 16 16 15 14 7 5 4 5 5 5 6 6 4 6 5 6 11 11 10 8 6 5 4 1 2 4 5 5 3 4
11 10 10 15 15 14 15 15 11 14 14 13 13 13 13 12 13 12 12 12 11 12 13 12 10 10 11 11 10 11 11 9 9 10 9 8 8 9 9 9 8 7 7 7 9 7 6 6 6 7 7 7 9 11 11 15 16 15 14 12 8 6 2 4 2 2 4 4 6 6 5 10 13 10 9 8 6 4 2 1 3 3 0 3 5
17 16 13 14 15 14 16 15 14 15 15 14 14 13 12 12 12 12 12 13 14 14 13 14 14 13 12 11 10 9 8 7 8 10 10 9 8 9 9 9 7 8 9 8 6 6 6 6 5 5 5 5 9 14 10 14 17 17 17 19 11 8 5 4 5 4 5 7 5 7 7 11 14 13 11 9 7 6 4 2 5 7 9 9 6
16 17 16 15 14 15 16 16 15 15 14 15 15 15 13 12 13 11 10 12 14 14 14 12 12 10 10 10 10 10 9 8 9 9 10 10 9 10 9 8 7 8 10 9 8 7 7 7 6 5 5 5 8 10 17 12 15 17 17 17 16 10 6 5 1 1 5 6 3 8 10 17 15 15 12 10 9 8 4 5 9 9 9 10 7
18 17 17 15 15 14 14 16 14 13 12 12 11 13 12 12 12 11 9 8 8 10 11 11 11 10 8 7 9 10 9 9 11 10 9 10 10 9 9 8 8 9 9 9 7 7 6 6 6 7 7 7 8 7 12 17 13 15 14 14 13 13 10 5 3 0 2 3 7 5 10 18 16 14 12 11 10 8 5 7 7 8 9 7 5
16 17 14 14 14 15 14 15 14 15 13 12 11 12 11 13 10 10 13 11 10 10 11 11 11 10 10 8 7 7 9 7 9 10 11 10 10 10 9 8 8 8 8 7 7 7 7 6 6 7 6 6 7 8 7 12 15 14 14 13 13 12 9 8 4 2 2 3 6 9 11 15 14 12 11 8 6 6 8 9 10 11 9 5 6
16 15 13 13 15 16 15 15 15 15 13 12 12 12 13 12 11 11 13 13 12 11 10 11 10 9 10 10 9 8 8 9 10 8 9 9 11 10 9 9 9 8 8 8 9 9 9 8 8 7 7 7 7 7 9 10 11 11 12 14 13 10 8 8 4 3 1 4 6 7 2 8 8 8 6 4 4 5 8 11 11 10 6 6 6
16 14 13 13 15 14 14 14 14 13 12 12 13 11 11 10 10 12 13 14 13 13 11 10 11 11 11 10 11 9 9 9 9 8 7 8 8 8 9 9 9 9 10 9 8 8 8 8 8 8 7 8 9 7 8 7 5 5 5 7 7 6 6 4 3 3 2 2 2 3 4 5 4 9 8 5 4 3 3 4 4 5 6 7 7
14 13 12 15 14 14 14 13 12 12 10 10 11 11 11 10 9 9 11 11 11 12 12 11 12 11 10 10 9 11 12 9 9 9 9 8 7 8 8 9 9 10 9 9 9 10 9 8 8 7 8 8 10 7 8 9 8 8 8 7 7 5 5 5 5 6 6 6 6 6 5 5 3 4 4 2 3 4 5 5 6 5 6 8 10
16 13 11 15 14 14 14 12 11 10 10 10 11 10 12 12 11 9 11 11 11 11 10 11 10 10 9 8 8 10 9 9 9 8 7 8 9 9 8 7 8 7 8 10 9 8 8 9 8 9 9 9 9 9 9 10 13 14 12 10 10 10 10 9 10 9 5 5 5 5 5 6 5 5 4 4 3 4 5 6 6 6 6 7 7
13 9 13 14 12 14 12 12 10 10 10 10 10 10 11 13 12 11 11 11 12 11 11 10 9 9 9 9 8 9 9 9 9 9 9 7 8 7 5 7 8 8 10 9 10 8 8 7 8 7 7 6 7 6 15 19 15 15 15 16 16 16 15 10 9 14 9 5 5 5 6 5 5 4 5 5 5 5 5 6 6 8 8 7 7
11 9 9 12 13 14 13 11 9 9 10 10 11 11 13 14 12 12 11 11 12 9 9 9 9 9 10 9 9 9 9 9 9 8 7 8 7 5 8 9 1 12 10 13 13 13 12 12 7 5 3 7 10 14 21 18 17 17 16 17 15 12 13 12 12 10 5 5 5 5 5 5 6 6 5 5 5 5 5 5 6 6 7 8 6
Wind_Direction
149 150 156 149 153 154 154 161 150 146 151 159 159 165 165 167 174 164 171 168 158 149 136 147 157 131 119 137 153 193 171 150 136 119 60 254 134 120 116 121 146 159 117 201 231 91 58 91 65 20 347 60 53 65 59 78 62 73 23 313 89 95 98 102 103 117 122 99 83 74 71 60 40 55 50 49 55 42 40 41 16 6 351 33 124
144 148 157 142 148 151 154 155 154 155 157 164 165 170 172 172 171 162 167 157 146 146 152 156 162 159 145 151 152 184 171 153 133 126 166 177 132 128 149 172 157 132 171 181 82 103 137 126 99 52 28 63 63 54 78 60 77 83 85 12 309 116 113 124 145 134 139 147 148 139 78 45 68 72 58 46 75 93 59 57 74 24 340 331 349
130 136 141 148 148 156 158 157 162 156 158 173 175 176 176 166 169 162 156 149 145 152 156 156 144 126 134 148 169 165 154 136 111 132 147 131 156 152 137 122 125 151 162 135 145 88 73 73 74 360 46 98 96 81 82 84 43 126 180 155 25 17 121 146 160 196 91 153 146 129 162 125 342 28 9 34 26 43 65 68 102 357 19 331 312
134 143 151 155 157 162 163 161 164 155 166 182 185 180 168 161 170 159 150 152 156 157 161 144 130 130 132 149 189 162 133 119 125 139 132 145 144 134 126 134 155 149 141 104 108 109 87 96 66 30 62 7 67 105 116 106 131 106 353 100 138 73 156 102 61 354 57 58 184 221 164 156 113 197 164 206 169 165 144 120 23 321 276 241 271
147 152 155 159 165 169 166 165 157 161 179 191 184 174 168 173 167 155 151 153 155 155 152 136 132 141 150 146 112 105 117 128 136 142 149 138 130 131 126 113 109 94 98 127 117 96 55 46 86 57 46 346 68 109 98 114 128 70 51 37 32 209 97 93 104 72 43 45 11 323 114 213 180 135 143 205 201 181 183 158 147 210 235 300 290
150 160 166 164 165 169 168 164 160 173 187 193 176 174 171 168 161 149 148 149 150 148 147 145 158 160 161 150 155 153 150 155 166 158 155 158 145 130 130 137 113 105 97 54 34 89 90 81 62 83 81 37 34 55 68 37 61 101 89 81 74 68 113 116 99 346 107 75 29 129 161 42 134 157 155 163 247 59 60 109 170 198 220 240 219
152 158 164 163 163 169 169 166 166 180 188 181 174 174 168 165 152 149 153 154 150 148 150 155 160 159 162 164 163 160 147 160 156 151 153 138 134 142 122 110 107 94 86 92 79 69 60 55 51 45 52 58 63 78 65 48 39 31 54 85 85 91 111 110 123 132 82 45 89 30 16 159 1 131 222 99 159 280 173 221 297 115 59 14 346
153 159 164 161 166 166 171 167 173 183 180 171 171 173 168 155 146 146 146 149 153 153 158 165 161 158 164 168 158 154 148 140 144 137 120 120 116 115 121 113 117 116 112 105 104 91 84 89 99 127 166 139 96 75 76 84 76 52 46 47 38 28 56 113 129 110 100 109 342 13 165 69 49 71 349 173 176 166 211 219 177 143 164 48 307
153 161 167 168 165 167 168 169 174 178 182 178 167 172 167 149 147 148 145 148 157 158 163 168 165 163 168 159 149 156 150 131 115 125 131 128 125 129 128 119 117 115 116 114 107 113 120 126 146 173 149 111 103 92 74 69 82 80 67 52 44 40 30 30 65 70 87 88 130 349 26 26 65 42 8 1 68 205 176 192 188 173 213 202 231
156 157 162 164 163 162 161 167 177 180 180 173 165 173 169 153 152 150 147 156 162 164 168 168 165 164 167 167 161 157 139 136 136 142 124 130 131 130 129 128 115 99 104 105 105 104 100 94 89 81 63 71 82 92 94 89 79 77 70 72 75 63 42 43 52 51 48 21 25 2 41 313 52 34 22 10 356 8 42 167 158 187 204 196 207
155 154 159 161 157 156 158 172 176 175 172 173 172 177 175 156 157 156 159 162 163 168 172 173 171 169 171 171 166 151 145 146 154 145 140 141 147 144 147 140 129 118 110 103 107 111 120 134 108 84 91 105 109 110 111 107 99 85 80 79 74 76 65 59 57 60 48 35 37 35 47 45 39 45 20 360 359 4 349 337 262 175 184 157 206
161 160 161 154 153 157 163 168 171 171 173 174 178 174 178 162 158 159 166 167 166 172 176 180 175 175 173 173 168 159 153 165 172 167 166 163 154 156 156 141 129 131 123 114 126 142 122 114 120 119 109 96 89 100 108 112 105 99 93 87 84 76 74 72 70 65 57 64 50 47 56 46 34 38 11 23 11 352 357 323 335 339 10 161 190
157 149 154 157 160 161 168 170 167 172 175 176 175 177 177 166 163 168 173 172 174 172 179 178 175 178 178 174 170 162 165 172 171 168 167 162 154 163 150 130 125 133 130 136 125 112 118 130 121 112 108 106 115 105 96 93 90 92 88 77 67 60 57 63 57 55 74 74 66 56 50 36 47 18 34 22 5 360 22 354 341 323 314 303 179
153 151 154 159 160 162 165 167 169 173 173 173 174 176 179 167 167 170 175 176 174 175 178 179 174 178 180 176 164 161 169 164 166 164 165 148 157 151 144 140 140 148 128 125 117 111 123 122 112 115 109 108 100 98 98 100 101 94 88 86 83 88 84 75 70 66 57 51 55 58 43 56 38 22 15 31 32 18 16 6 331 327 310 350 337
146 152 152 157 162 161 165 168 168 172 173 170 177 182 175 168 169 173 172 177 175 176 177 176 174 181 181 163 160 161 156 159 162 159 150 152 164 156 151 152 162 131 119 131 144 148 137 115 107 106 108 102 106 101 93 86 82 81 78 77 80 80 73 70 70 65 60 65 60 49 61 47 47 52 31 8 43 29 30 352 360 356 332 44 341
146 147 146 148 159 159 164 168 167 171 171 171 177 183 175 172 172 176 175 173 173 176 174 173 175 180 169 156 163 156 154 168 159 150 158 170 166 157 149 151 124 119 133 152 158 128 119 119 121 112 111 111 106 109 102 86 81 85 82 82 84 78 87 86 76 68 69 66 60 58 65 61 44 33 48 31 11 9 24 7 22 18 15 342 348
142 142 144 154 159 163 166 166 168 170 171 176 181 182 178 171 172 175 176 175 173 172 173 172 173 168 166 159 159 160 171 173 160 160 168 160 152 148 143 136 140 139 135 141 121 123 128 133 122 122 119 124 121 102 98 102 96 90 96 100 103 101 87 87 83 83 79 64 80 106 116 93 59 46 37 27 5 10 19 20 42 44 355 350 360
137 148 152 159 163 167 167 168 171 171 172 174 178 178 176 177 176 174 173 176 174 172 175 176 170 163 163 162 164 166 169 163 157 161 160 152 144 147 142 144 142 128 132 128 129 133 138 128 121 127 133 126 118 111 113 112 114 110 109 98 88 92 98 101 101 110 98 94 82 72 61 46 57 88 80 24 8 359 31 31 16 60 33 28 347
141 142 151 158 164 168 167 172 173 172 173 173 175 171 175 180 178 178 175 175 172 171 175 172 169 161 162 162 164 163 162 158 159 151 141 143 143 146 155 126 124 120 132 138 141 140 133 127 132 129 128 126 118 117 116 112 109 115 109 106 120 119 105 88 84 87 83 94 91 81 73 96 87 92 96 101 43 1 358 47 346 89 86 41 348
143 145 150 158 165 168 170 171 173 173 171 171 171 171 174 179 178 177 172 171 173 176 172 169 164 157 160 157 161 162 160 160 148 139 149 142 152 157 149 127 130 131 135 148 146 142 137 139 137 136 136 131 124 121 122 108 112 115 125 138 141 123 119 124 121 109 113 130 144 121 124 155 187 146 91 63 158 165 341 343 352 360 109 60 359
146 148 153 159 164 168 168 170 170 170 164 164 167 174 179 179 177 175 173 173 173 172 168 166 160 161 155 159 156 162 161 150 142 143 145 157 143 127 137 137 133 141 150 152 151 145 143 144 142 145 143 134 132 131 118 126 125 137 145 138 139 136 137 131 125 121 120 118 102 113 106 67 2 75 160 152 318 211 170 180 100 336 63 48 24
150 150 152 157 162 166 165 163 163 164 166 169 168 175 180 178 177 176 170 174 172 167 166 162 162 158 158 157 157 164 155 148 146 148 154 148 139 145 145 146 141 146 156 156 151 149 144 148 148 147 144 141 140 134 137 137 148 142 130 144 156 149 136 124 138 138 120 107 132 116 95 49 19 37 2 22 19 342 28 37 22 34 25 1 53
154 150 152 156 162 165 167 166 163 166 170 170 168 178 179 175 175 177 173 175 173 170 166 161 156 156 158 157 158 158 149 149 150 159 155 154 150 143 148 148 147 147 157 157 149 148 153 151 150 148 145 147 144 142 150 147 143 142 151 159 149 133 131 146 138 127 139 120 99 112 126 145 153 86 62 36 346 352 356 52 311 62 271 79 36
147 151 155 160 159 154 162 168 158 163 167 172 176 175 176 177 176 176 175 174 172 166 158 160 153 155 158 157 158 152 150 148 155 163 159 149 146 146 151 148 145 152 157 150 147 155 154 151 150 149 148 147 146 148 155 147 146 156 161 151 141 135 138 139 141 147 138 158 145 125 110 132 133 39 68 110 13 325 309 46 336 339 334 53 355
142 148 150 155 155 159 166 170 165 164 169 172 177 179 173 177 178 177 173 175 169 165 160 165 156 155 159 158 158 156 151 152 156 159 153 147 145 147 152 146 142 155 154 151 154 158 156 157 156 156 153 155 149 158 153 147 153 161 156 142 142 150 156 150 138 140 152 135 155 160 160 140 145 144 21 47 47 338 346 34 12 336 347 28 344
138 145 150 156 161 162 163 167 168 168 173 175 177 177 174 175 179 177 169 171 169 162 161 161 156 157 160 159 157 156 155 155 155 158 151 147 146 149 149 139 151 159 156 157 163 162 165 161 163 159 156 156 154 158 154 156 159 157 148 149 152 156 156 137 130 135 130 135 138 133 143 111 81 71 74 56 13 355 337 25 23 335 347 355 328
145 150 155 158 163 166 166 167 167 169 170 173 175 174 174 175 175 172 167 167 164 157 155 155 158 161 158 160 160 157 153 159 158 155 150 148 150 152 148 145 159 162 162 163 168 165 164 166 167 160 160 158 158 159 159 159 156 160 152 155 148 151 130 120 145 140 131 140 128 96 71 63 74 63 61 47 359 312 310 44 16 354 343 338 318
151 161 163 164 164 165 166 166 165 170 171 173 174 176 176 176 173 171 167 164 156 152 153 158 163 163 160 160 158 152 153 161 155 154 150 149 148 153 150 148 163 168 168 169 173 166 170 166 170 160 159 156 155 160 161 158 161 158 154 143 148 142 138 151 147 129 126 116 111 102 80 51 54 38 30 27 30 5 335 31 26 4 340 336 331
157 158 164 168 161 167 165 168 169 167 172 173 174 174 171 173 171 171 160 159 156 154 154 160 165 161 158 158 155 149 150 151 155 152 149 150 151 156 150 152 168 165 166 170 170 167 169 171 165 157 153 154 160 165 160 159 162 157 146 149 153 155 150 149 140 132 130 133 103 86 78 86 86 87 77 73 68 38 3 353 19 3 348 341 345
160 164 168 169 172 169 167 166 170 169 172 174 174 174 169 171 173 166 154 156 157 155 157 162 164 160 155 156 159 160 157 156 154 151 148 148 152 156 152 155 167 162 165 167 171 165 170 173 164 157 152 155 159 176 150 162 159 151 150 158 153 156 149 145 150 145 154 130 105 85 104 115 110 105 106 105 69 35 16 11 349 357 354 348 349
163 167 172 172 168 166 168 170 169 173 175 177 174 169 168 169 170 163 155 155 157 159 160 160 158 157 158 155 160 165 157 160 151 151 150 152 154 157 157 161 167 164 171 173 170 167 171 176 164 160 151 158 167 168 144 153 150 144 152 146 158 149 152 152 155 150 154 134 111 118 123 136 138 152 179 203 190 210 246 282 297 293 313 328 339
171 169 167 168 173 168 171 176 172 174 172 173 172 168 165 169 162 157 153 156 158 162 161 158 152 154 158 159 158 156 153 158 153 155 156 156 153 156 158 163 163 162 171 170 174 170 173 175 162 162 154 159 153 129 125 113 115 111 96 149 149 152 158 160 161 162 160 134 137 139 168 167 181 191 194 211 231 223 219 227 234 247 263 281 273
169 171 175 176 176 175 173 173 170 170 173 174 165 167 168 159 158 156 152 158 160 161 158 156 151 153 158 156 160 162 158 158 162 158 156 148 152 159 163 168 164 162 165 173 179 168 176 176 160 163 151 148 120 143 126 120 111 108 86 109 160 158 164 165 161 173 165 156 152 169 179 191 191 204 203 198 204 220 233 235 236 240 249 246 256
171 168 177 178 172 170 160 163 165 169 167 164 168 166 156 151 152 153 155 159 157 154 153 157 153 154 156 152 161 163 160 163 159 155 152 153 161 167 165 164 158 159 169 169 179 171 171 172 157 153 145 132 143 151 138 130 126 116 100 75 177 160 165 171 168 179 174 169 162 172 168 165 155 186 218 220 206 206 210 220 227 228 232 240 240
161 166 175 182 174 157 154 162 169 167 164 160 167 168 154 153 156 156 155 155 153 148 154 153 155 155 157 155 159 164 166 159 156 154 153 159 167 169 161 166 161 167 171 171 175 165 165 164 138 134 143 133 153 155 142 138 135 131 106 82 337 151 167 181 174 181 178 162 164 171 174 178 170 199 182 51 16 353 320 259 216 209 221 228 221
157 165 177 180 166 154 158 165 165 160 161 164 164 161 161 157 153 148 151 155 148 150 152 153 154 155 156 162 165 166 161 158 159 158 158 159 166 164 164 163 160 160 167 159 172 162 158 130 135 157 142 132 150 155 146 144 142 136 115 87 153 303 176 187 160 172 160 146 154 180 188 181 174 129 118 84 56 10 322 311 298 270 267 236 206
149 164 169 175 154 150 154 156 156 160 163 166 159 157 158 152 153 151 151 150 149 156 156 152 154 154 164 166 168 161 157 160 161 162 164 165 166 168 164 158 158 163 166 168 172 169 145 140 144 163 130 130 128 143 147 154 153 133 127 140 52 314 208 121 114 169 173 186 160 185 241 171 143 132 141 121 98 49 314 303 290 287 279 280 284
142 145 161 149 133 141 147 151 157 161 164 162 154 156 147 142 145 151 153 150 153 156 154 150 156 164 169 169 163 155 160 163 165 166 167 162 161 161 161 162 166 164 169 169 152 125 123 131 148 146 112 125 131 145 183 163 137 123 121 141 250 266 223 191 169 174 184 193 175 134 58 347 160 146 156 144 137 107 312 298 287 272 280 272 331
142 151 156 134 133 142 143 149 160 162 162 151 149 145 142 142 144 150 155 158 154 154 156 158 161 168 166 160 156 163 165 167 168 166 163 162 164 164 160 161 163 157 144 122 123 135 146 152 151 116 129 137 150 165 184 157 158 150 145 178 218 252 223 214 170 175 178 200 152 130 101 70 96 143 150 151 132 130 305 309 316 325 295 309 29
141 128 151 137 136 136 144 150 153 147 142 147 145 138 140 143 149 152 158 165 163 160 156 164 166 163 161 153 170 169 169 168 168 165 163 162 158 153 148 148 135 130 131 133 130 134 138 138 143 136 147 156 156 167 179 171 162 162 171 181 228 257 262 206 178 182 179 210 142 131 128 125 125 143 160 168 142 122 213 310 327 324 331 353 333
136 149 159 143 141 137 143 147 137 138 142 142 142 143 146 150 154 160 169 164 159 162 163 167 170 162 151 160 172 170 164 162 163 157 144 127 129 136 138 138 138 136 127 127 143 150 150 154 157 179 159 159 158 165 180 172 168 172 170 178 214 228 349 331 138 203 174 201 171 174 157 152 150 161 170 181 161 170 169 265 284 288 319 271 302
142 155 144 131 136 145 151 145 141 143 145 150 149 148 153 155 162 171 173 160 161 167 167 171 169 168 151 160 161 157 149 142 144 139 129 130 134 135 139 142 143 138 131 134 137 151 151 156 176 172 175 166 155 163 159 184 180 177 178 189 201 210 155 87 37 306 224 206 190 177 162 169 164 166 172 178 184 198 189 217 253 268 293 314 316
130 132 135 145 148 158 163 148 146 149 154 157 155 153 159 160 166 165 172 171 167 166 161 159 153 159 154 158 159 152 153 150 146 142 140 138 141 141 140 138 129 122 136 146 153 150 156 171 172 183 186 164 154 170 172 180 194 185 188 194 203 202 163 109 122 317 328 318 263 188 169 170 171 169 173 177 185 197 191 235 249 275 294 300 303
144 147 143 146 151 154 152 149 150 151 154 157 155 154 159 161 167 170 162 148 156 151 146 145 149 146 127 111 137 147 146 147 146 144 141 139 140 136 135 134 139 145 148 152 154 162 165 167 186 179 199 161 166 167 180 180 188 194 197 199 206 212 212 165 141 240 312 338 328 294 167 171 169 167 173 181 194 188 216 243 263 273 279 289 288
141 147 144 149 146 147 148 152 153 157 158 162 160 160 159 165 168 143 130 132 131 126 127 130 129 128 126 122 112 117 133 121 138 142 142 143 141 144 144 148 141 144 150 154 164 175 181 178 181 187 187 175 172 172 167 184 184 192 198 205 213 206 195 162 149 184 100 334 353 332 158 154 161 167 174 179 186 208 226 246 255 264 274 280 274
130 133 151 155 147 146 152 153 159 161 163 163 164 168 164 172 168 156 147 145 141 138 138 139 133 130 133 132 123 123 120 131 139 143 145 151 152 153 151 151 154 155 159 167 174 184 187 189 184 187 181 181 190 173 177 184 190 187 195 204 209 203 185 169 159 129 129 330 8 35 139 141 155 160 156 188 205 208 222 234 248 256 258 257 257
132 143 154 146 148 154 155 158 160 161 161 162 167 161 158 152 148 154 153 155 155 145 143 142 137 137 137 140 139 142 141 142 145 144 148 153 157 159 157 159 165 170 176 177 183 172 183 186 180 187 183 183 195 175 164 166 154 164 188 190 193 203 183 145 150 186 190 225 178 164 185 190 192 190 192 197 196 221 241 253 243 240 239 245 245
138 157 162 146 155 157 156 155 155 157 153 156 153 149 154 137 141 138 131 129 128 137 144 144 141 139 144 147 146 142 143 149 156 155 154 155 162 170 172 173 174 175 181 176 181 181 182 178 189 192 190 191 194 166 161 161 169 174 185 181 187 179 168 194 197 197 190 185 184 198 213 210 189 182 217 223 224 224 231 240 248 245 244 240 239
153 168 162 149 154 151 150 150 153 154 151 153 158 156 155 145 144 135 130 137 136 138 139 138 138 140 143 141 140 150 154 154 153 159 165 170 168 169 175 179 191 192 184 181 183 179 181 189 197 200 197 197 194 175 170 165 179 179 175 174 173 186 196 199 204 192 180 199 175 173 201 202 204 206 204 221 226 229 229 231 240 242 247 250 243
150 158 142 143 142 140 148 152 152 151 151 157 154 165 155 147 149 152 149 142 143 144 138 139 142 143 143 140 144 154 156 155 160 163 163 161 164 149 176 179 184 181 182 170 166 181 191 194 202 210 196 189 181 172 146 169 179 179 181 178 189 188 193 192 183 180 186 196 199 194 198 193 204 193 209 216 223 232 237 234 235 237 238 249 258
138 129 127 135 138 143 145 144 154 156 161 158 165 167 153 151 150 150 143 139 144 141 141 143 144 148 150 149 151 158 156 158 161 161 158 144 153 76 54 40 88 171 177 172 178 200 218 212 182 174 133 149 157 140 158 170 173 180 179 183 192 189 178 184 174 163 190 199 196 203 208 196 197 209 211 212 215 225 239 247 253 244 214 214 220